[[{"header":{"parameterUnit":"m.s-1","parameterCategory":1,"la1":30.2991,"la2":30.254,"lo1":-89.0895,"lo2":-89.0444,"dy":0.0017,"dx":0.0017,"nx":28,"ny":28,"refTime":"2025-12-26T03:00:00:Z","depth":0,"parameterNumber":2,"parameterNumberName":"U-component_of_WINDS"},"data":[0,0,0,0,0,0,0,0,0,0,0,0,0,0,0,0,0,0,0,0,0,0,0,0,0,0,0,0,0,0,0,0,0,0,0,0,0,0,0,0,0,0,0,0,0,0,0,0,0,0,0,0,0,0,0,0,0,0,1.685,1.6849,0,1.6825,1.6825,1.6824,1.6807,1.6807,1.6807,1.6807,1.6783,1.6782,1.6782,0,0,0,0,0,0,0,0,0,0,0,0,0,1.6885,1.6884,1.685,1.6849,1.6849,1.6825,1.6825,1.6824,1.6807,1.6807,1.6807,1.6807,1.6783,1.6782,1.6782,0,0,0,0,0,0,0,0,0,0,0,0,0,1.6866,1.6884,1.685,1.6838,1.6836,1.6825,1.6825,1.6824,1.6807,1.6807,1.6807,1.6807,1.6783,1.6782,1.6782,1.6781,0,0,1.6779,1.6779,0,0,0,0,0,0,0,0,1.6867,1.6865,1.684,1.6839,1.6837,1.6819,1.6828,1.681,1.6807,1.6818,1.6807,1.6807,1.6795,1.6793,1.6789,1.678,1.6779,1.6779,1.6779,1.6778,1.6778,0,0,0,0,0,0,0,1.6868,1.6866,1.684,1.6839,1.6838,1.6834,1.6832,1.6825,1.6808,1.6817,1.6816,1.6813,1.6794,1.679,1.6788,1.6778,1.6779,1.6779,1.6778,1.6778,1.6769,1.6769,0,0,0,0,0,0,1.6871,1.6867,1.6841,1.6839,1.6852,1.6834,1.6831,1.6825,1.6808,1.6805,1.6814,1.6813,1.6791,1.6789,1.6788,1.6787,1.6778,1.6778,1.6777,1.6769,1.6769,1.6769,0,0,0,0,0,0,1.6872,1.6869,1.6842,1.6853,1.6849,1.6834,1.6827,1.6825,1.682,1.6805,1.6802,1.6812,1.6791,1.6789,1.6783,1.6785,1.6777,1.6777,1.6769,1.6769,1.6769,1.6784,0,0,0,0,0,0,1.6873,1.6869,1.6868,1.6853,1.6848,1.6837,1.6827,1.6824,1.6819,1.6817,1.6803,1.68,1.6791,1.6784,1.6782,1.6784,1.6776,1.6768,1.6769,1.6769,1.6783,1.6785,1.6786,0,0,0,0,0,1.6875,1.6873,1.6868,1.6865,1.6846,1.6837,1.6834,1.6823,1.6819,1.6818,1.6809,1.6801,1.6786,1.6784,1.6781,1.6783,1.6768,1.6769,1.6769,1.6782,1.6784,1.6786,0,0,0,0,0,0,1.6889,1.6871,1.6865,1.6858,1.6849,1.6834,1.6832,1.6825,1.6817,1.6816,1.6803,1.68,1.6796,1.6789,1.6787,1.6783,1.6776,1.6776,1.6787,1.6789,1.679,1.6792,1.6775,0,0,0,0,0,1.6891,1.6884,1.6869,1.6865,1.6861,1.6848,1.6843,1.6835,1.6825,1.6821,1.6812,1.6803,1.6796,1.6792,1.6785,1.6782,1.678,1.6783,1.6784,1.6785,1.6786,1.6785,1.6787,1.6771,1.6771,1.6771,0,0,1.6896,1.6885,1.6882,1.6868,1.686,1.6854,1.6844,1.6838,1.6834,1.682,1.6815,1.6808,1.6797,1.6793,1.6791,1.6788,1.679,1.6786,1.6787,1.6787,1.6786,1.6788,1.6789,1.6772,1.6771,1.6771,0,0,1.6902,1.6893,1.6889,1.6881,1.687,1.6861,1.6861,1.6847,1.6842,1.6836,1.6826,1.6822,1.681,1.6803,1.6799,1.6805,1.6798,1.6803,1.6811,1.6811,1.6812,1.6813,1.6816,1.6817,1.6803,1.6804,1.6804,0,1.6909,1.6899,1.6888,1.6883,1.6877,1.6866,1.6862,1.6856,1.6843,1.684,1.6836,1.6823,1.6815,1.681,1.6812,1.6808,1.6808,1.6804,1.6813,1.6813,1.6814,1.6817,1.6818,1.6804,1.6804,1.6804,1.6804,0,1.691,1.6904,1.6902,1.689,1.6885,1.6881,1.6869,1.6866,1.6859,1.6852,1.6847,1.6837,1.6829,1.6827,1.682,1.6822,1.6821,1.6815,1.6808,1.6817,1.6819,1.682,1.6805,1.6805,1.6805,1.6805,0,0,1.6922,1.6905,1.6905,1.69,1.6888,1.6883,1.688,1.6871,1.6869,1.6861,1.6858,1.685,1.6845,1.684,1.6833,1.6833,1.684,1.6827,1.6827,1.683,1.6843,1.6847,1.6849,1.6835,1.6836,1.6836,1.6844,0,1.6926,1.6918,1.6909,1.6905,1.69,1.689,1.6887,1.688,1.6873,1.6869,1.6862,1.6856,1.685,1.6847,1.6847,1.6839,1.6842,1.6838,1.6834,1.6834,1.6836,1.685,1.6854,1.6862,1.6845,1.6845,1.6845,0,1.6929,1.6923,1.6918,1.6908,1.6906,1.6903,1.6896,1.6892,1.6884,1.688,1.6875,1.6867,1.6864,1.6859,1.6855,1.6853,1.6851,1.6847,1.6847,1.6846,1.684,1.685,1.6865,1.6866,1.6846,1.6846,1.6846,0,1.694,1.693,1.6926,1.6922,1.691,1.6909,1.6904,1.6896,1.6893,1.6887,1.6885,1.6879,1.6876,1.6872,1.6864,1.686,1.6862,1.6855,1.6859,1.6859,1.6859,1.6859,1.6874,1.6857,1.6857,1.6857,1.6857,0,1.6946,1.6943,1.6931,1.6929,1.6927,1.6917,1.6915,1.6909,1.6903,1.69,1.6892,1.6889,1.6879,1.6876,1.687,1.6868,1.6867,1.6864,1.6862,1.6865,1.6865,1.6863,1.6862,1.6858,1.6858,1.6857,1.6857,0,1.6956,1.6948,1.6943,1.6933,1.693,1.6929,1.6921,1.6919,1.6913,1.691,1.6909,1.6899,1.6896,1.6887,1.6881,1.6877,1.6878,1.6875,1.688,1.6879,1.6884,1.6884,1.6898,1.69,1.6882,1.6882,1.6882,0,1.696,1.6958,1.6948,1.6946,1.6942,1.6938,1.6935,1.6926,1.6923,1.6916,1.6915,1.6911,1.6907,1.6902,1.6895,1.6891,1.6887,1.6893,1.6887,1.689,1.6888,1.6888,1.6889,1.6894,1.6894,1.6894,1.6894,0,1.6969,1.6965,1.696,1.6955,1.6952,1.6947,1.6942,1.6941,1.6931,1.6929,1.6925,1.6922,1.6917,1.6913,1.6908,1.6904,1.6898,1.6897,1.6897,1.69,1.6903,1.6902,1.6884,1.6896,1.6896,1.6896,1.6896,1.6896,1.6976,1.6975,1.6968,1.6964,1.696,1.6956,1.6954,1.6949,1.6945,1.694,1.6936,1.6933,1.6927,1.692,1.6917,1.6915,1.6912,1.6913,1.6913,1.6914,1.6915,1.6904,1.6914,1.6914,1.6914,1.6914,1.6914,0,1.6985,1.6981,1.6977,1.6971,1.6968,1.6963,1.6958,1.6956,1.6954,1.6949,1.6946,1.6943,1.694,1.6934,1.693,1.693,1.6928,1.693,1.693,1.6929,1.6918,1.6918,1.6932,1.6932,1.6932,1.6932,1.6932,1.6932,1.6989,1.6987,1.6983,1.698,1.6975,1.6973,1.697,1.6967,1.6964,1.6961,1.6958,1.6954,1.695,1.6946,1.6944,1.6942,1.6942,1.6945,1.6942,1.6932,1.693,1.6928,1.6928,1.6945,1.6945,1.6954,1.6954,1.6954]},{"header":{"parameterUnit":"m.s-1","parameterCategory":1,"la1":30.2991,"la2":30.254,"lo1":-89.0895,"lo2":-89.0444,"dy":0.0017,"dx":0.0017,"nx":28,"ny":28,"refTime":"2025-12-26T03:00:00:Z","depth":0,"parameterNumber":3,"parameterNumberName":"V-component_of_WINDS"},"data":[0,0,0,0,0,0,0,0,0,0,0,0,0,0,0,0,0,0,0,0,0,0,0,0,0,0,0,0,0,0,0,0,0,0,0,0,0,0,0,0,0,0,0,0,0,0,0,0,0,0,0,0,0,0,0,0,0,0,1.8075,1.8076,0,1.8163,1.8164,1.8165,1.8176,1.8176,1.8175,1.8174,1.8262,1.8265,1.8268,0,0,0,0,0,0,0,0,0,0,0,0,0,1.7916,1.7919,1.8075,1.8076,1.8077,1.8163,1.8164,1.8165,1.8177,1.8176,1.8175,1.8174,1.8261,1.8264,1.8268,0,0,0,0,0,0,0,0,0,0,0,0,0,1.7992,1.7919,1.8075,1.8093,1.8096,1.8162,1.8164,1.8165,1.8177,1.8175,1.8174,1.8173,1.8259,1.8264,1.8269,1.8322,0,0,1.8283,1.8285,0,0,0,0,0,0,0,0,1.7988,1.7998,1.8089,1.8092,1.8095,1.8157,1.814,1.8218,1.8177,1.8146,1.8174,1.8172,1.8228,1.8235,1.8254,1.8326,1.833,1.8283,1.8286,1.8288,1.8289,0,0,0,0,0,0,0,1.7983,1.7994,1.811,1.8091,1.8094,1.8097,1.8106,1.8155,1.8193,1.8149,1.815,1.816,1.8229,1.825,1.8256,1.8331,1.8283,1.8287,1.829,1.8292,1.8452,1.8453,0,0,0,0,0,0,1.7974,1.799,1.8107,1.8112,1.8037,1.81,1.8111,1.8139,1.8192,1.8199,1.8161,1.816,1.8242,1.8251,1.8259,1.8326,1.8288,1.8292,1.8295,1.8451,1.8452,1.8454,0,0,0,0,0,0,1.7971,1.7984,1.8103,1.8051,1.8067,1.8105,1.8135,1.8141,1.8162,1.8202,1.8208,1.8175,1.8242,1.8253,1.8307,1.833,1.8295,1.8299,1.8449,1.8451,1.8453,1.846,0,0,0,0,0,0,1.7966,1.7983,1.8004,1.8052,1.8069,1.815,1.8137,1.8144,1.817,1.817,1.8217,1.8223,1.8242,1.83,1.8311,1.8335,1.8302,1.8447,1.845,1.8452,1.8458,1.8462,1.8466,0,0,0,0,0,1.796,1.8002,1.8005,1.8019,1.8097,1.8151,1.8161,1.8182,1.8172,1.8193,1.8219,1.8222,1.8325,1.8305,1.8318,1.8344,1.8446,1.8449,1.8452,1.8456,1.8462,1.8466,0,0,0,0,0,0,1.7956,1.8009,1.8013,1.8072,1.8107,1.8153,1.8181,1.8187,1.8225,1.8223,1.8247,1.8257,1.831,1.8332,1.8309,1.8399,1.8384,1.839,1.8383,1.8388,1.8392,1.8386,1.8306,0,0,0,0,0,1.7962,1.8002,1.8046,1.8093,1.8111,1.8143,1.8167,1.818,1.8217,1.8232,1.8262,1.8297,1.8338,1.8364,1.8403,1.8461,1.8471,1.8485,1.8489,1.8492,1.8497,1.853,1.8536,1.8465,1.8465,1.8465,0,0,1.7974,1.8008,1.8032,1.8093,1.8122,1.8163,1.8155,1.8199,1.8229,1.8238,1.8292,1.8315,1.8355,1.8412,1.8438,1.8432,1.8519,1.8496,1.8498,1.8502,1.8534,1.8541,1.8547,1.8467,1.8467,1.8466,0,0,1.8018,1.8048,1.8091,1.812,1.8164,1.8185,1.8195,1.8241,1.8257,1.8311,1.8319,1.8355,1.8424,1.8453,1.8477,1.8531,1.8536,1.8543,1.8564,1.8596,1.8601,1.8607,1.8627,1.8634,1.8548,1.8548,1.8548,0,1.8028,1.8091,1.8112,1.8156,1.8183,1.8194,1.8238,1.8264,1.8319,1.8337,1.8329,1.8416,1.8444,1.8508,1.8521,1.854,1.8552,1.8539,1.8599,1.8604,1.8609,1.8629,1.8637,1.8549,1.8549,1.8549,1.8549,0,1.8101,1.8144,1.8174,1.8227,1.8257,1.83,1.8328,1.8355,1.8365,1.8387,1.8441,1.8476,1.8523,1.8538,1.8548,1.8603,1.8598,1.8594,1.858,1.8617,1.8636,1.8643,1.855,1.855,1.855,1.8549,0,0,1.8146,1.821,1.8221,1.8246,1.8295,1.8328,1.8372,1.8418,1.8442,1.8478,1.8516,1.8574,1.8571,1.8598,1.8611,1.8638,1.868,1.8631,1.8633,1.864,1.8744,1.8747,1.8755,1.8683,1.8684,1.8686,1.874,0,1.8196,1.8276,1.8296,1.8363,1.8403,1.8414,1.8452,1.8486,1.8507,1.8544,1.8566,1.8608,1.86,1.8617,1.8644,1.8669,1.8702,1.8665,1.8718,1.8719,1.8709,1.8765,1.8769,1.8819,1.8748,1.8749,1.875,0,1.8266,1.8306,1.8377,1.8421,1.8439,1.8473,1.8517,1.8552,1.8591,1.8604,1.8634,1.8645,1.869,1.8673,1.8735,1.871,1.8733,1.8748,1.8751,1.8757,1.8738,1.8774,1.8835,1.8843,1.8762,1.8761,1.876,0,1.8293,1.8363,1.8415,1.8436,1.8489,1.8512,1.8535,1.8573,1.8599,1.8638,1.8655,1.8698,1.8721,1.8754,1.8775,1.8761,1.8836,1.8821,1.8849,1.8848,1.8865,1.8864,1.8932,1.8878,1.8878,1.8877,1.8877,0,1.8348,1.8391,1.8428,1.846,1.8509,1.8532,1.8579,1.8602,1.8635,1.8672,1.8683,1.8717,1.8743,1.878,1.8797,1.8846,1.8856,1.8868,1.8873,1.8868,1.8867,1.8884,1.8882,1.8879,1.8879,1.8879,1.8878,0,1.8386,1.8413,1.847,1.8516,1.8528,1.8562,1.8601,1.8632,1.8653,1.8699,1.8711,1.8744,1.8788,1.8813,1.8868,1.8879,1.8935,1.8937,1.8923,1.8925,1.8952,1.8949,1.9034,1.9047,1.8983,1.8983,1.8984,0,1.842,1.8454,1.8503,1.8529,1.8553,1.8594,1.8621,1.8644,1.8672,1.8719,1.8744,1.879,1.8827,1.8897,1.8926,1.8968,1.8971,1.8998,1.8978,1.8972,1.8973,1.8971,1.8975,1.9002,1.9003,1.9003,1.9003,0,1.8478,1.849,1.8529,1.8574,1.8607,1.8642,1.8678,1.8698,1.8727,1.8758,1.8804,1.8833,1.8889,1.8934,1.8979,1.9001,1.9008,1.9009,1.9018,1.9015,1.9006,1.9012,1.8933,1.9008,1.9007,1.9007,1.9007,1.9006,1.8516,1.8547,1.8587,1.8631,1.866,1.8693,1.8725,1.875,1.8789,1.8838,1.8849,1.8897,1.8934,1.8995,1.9019,1.9057,1.9052,1.9064,1.9068,1.9071,1.9073,1.8999,1.9065,1.9065,1.9065,1.9065,1.9065,0,1.8576,1.8602,1.8642,1.8692,1.8726,1.8729,1.8768,1.8797,1.884,1.8874,1.8911,1.8964,1.9007,1.9039,1.9083,1.9107,1.9111,1.9118,1.9117,1.9122,1.9074,1.9063,1.9114,1.9114,1.9114,1.9114,1.9114,1.9114,1.8611,1.8663,1.868,1.8747,1.8772,1.8821,1.8843,1.8873,1.8901,1.896,1.8996,1.9017,1.905,1.9097,1.9137,1.9145,1.9161,1.9168,1.9176,1.9131,1.9126,1.9121,1.911,1.9171,1.9171,1.9222,1.9222,1.9222]}]]